Home   Weather   Amersfoort   Past weeks

Flag for Netherlands Past Weather in Amersfoort, Netherlands — Yesterday and Last 2 Weeks

Now
54 °F

Broken clouds.


Feels Like: 50 °F
Forecast: 51 / 56 °F
Wind: 12 mph from Southwest

Location: Deelen

Current Time: Oct 22, 2017 at 2:03:53 pm

Latest Report: Oct 22, 2017 at 1:25 pm


Visibility: N/A

Pressure: 29.80 "Hg

Humidity: 88%

Dew Point: 50 °F

Location of AmersfoortLocation

Past Weather in Amersfoort — Graph

°F

Amersfoort Temperature Yesterday

Maximum temperature yesterday: 63 °F (at 1:55 pm)
Minimum temperature yesterday: 50 °F (at 2:25 am)
Average temperature yesterday: 55 °F

High & Low Weather Summary for the Past Weeks

 TemperatureHumidityPressure
High75 °F (Oct 16, 2:25 pm)100% (Oct 7, 2:25 pm)30.30 "Hg (Oct 7, 2:25 pm)
Low37 °F (Oct 9, 1:25 am)55% (Oct 12, 1:25 pm)29.68 "Hg (Oct 20, 6:25 am)
Average57 °F87%30.00 "Hg
* Reported Oct 7 12:25 pm — Oct 22 12:55 pm, Amersfoort. Weather by CustomWeather, © 2017

Note: Actual official high and low records may vary slightly from our data, if they occured in-between our weather recording intervals... More about our weather records

Advertising

Amersfoort Weather History for the Previous 24 Hours

Scroll right to see more
 ConditionsComfort  
Time TempWeatherWind HumidityBarometerVisibility
12:55 pm
Sun, Oct 22
54 °FMore clouds than sun.9 mph94%29.80 "HgN/A
12:25 pm54 °FBroken clouds.9 mph94%29.77 "HgN/A
11:55 am52 °FBroken clouds.10 mph94%29.77 "HgN/A
11:25 am50 °FSprinkles. Broken clouds.13 mph100%29.77 "Hg4 mi
10:55 am50 °FBroken clouds.13 mph100%29.77 "HgN/A
10:25 am50 °FLight rain. Partly sunny.15 mph100%29.77 "HgN/A
9:55 am50 °FLight rain. Broken clouds.16 mph100%29.74 "Hg2 mi
9:25 am50 °FDrizzle. More clouds than sun.16 mph100%29.74 "Hg5 mi
8:55 am50 °FDrizzle. Broken clouds.15 mph94%29.74 "Hg3 mi
8:25 am50 °FDrizzle. Cloudy.16 mph94%29.71 "HgN/A
7:55 am50 °FDrizzle. Mostly cloudy.15 mph94%29.71 "Hg4 mi
7:25 am50 °FOvercast.15 mph94%29.71 "HgN/A
6:55 am50 °FPartly cloudy.15 mph94%29.71 "Hg3 mi
6:25 am48 °FLight rain. Partly cloudy.16 mph100%29.71 "HgN/A
5:55 am48 °FPassing clouds.16 mph100%29.71 "Hg4 mi
5:25 am48 °FRain. Passing clouds.16 mph94%29.71 "Hg3 mi
4:55 am50 °FRain. Overcast.17 mph88%29.71 "HgN/A
4:25 am52 °FOvercast.17 mph77%29.71 "HgN/A
3:55 am52 °FOvercast.17 mph77%29.74 "HgN/A
3:25 am52 °FPassing clouds.16 mph77%29.74 "HgN/A
2:55 am50 °FCool.15 mph82%29.74 "HgN/A
2:25 am52 °FCool.14 mph77%29.74 "HgN/A
1:55 am52 °FCool.14 mph77%29.77 "HgN/A
1:25 am52 °FCool.16 mph77%29.77 "HgN/A
12:55 am52 °FCool.14 mph82%29.77 "HgN/A
12:25 am52 °FCool.16 mph82%29.77 "HgN/A
11:55 pm
Sat, Oct 21
52 °FPassing clouds.10 mph88%29.77 "HgN/A
11:25 pm50 °FCool.12 mph88%29.77 "HgN/A
10:55 pm50 °FPassing clouds.8 mph88%29.77 "HgN/A
10:25 pm52 °FOvercast.9 mph82%29.77 "HgN/A
9:55 pm50 °FPassing clouds.7 mph94%29.77 "HgN/A
9:25 pm54 °FLight rain. Mostly cloudy.12 mph82%29.80 "HgN/A
8:25 pm55 °FCool.13 mph72%29.77 "HgN/A
7:55 pm54 °FPassing clouds.8 mph77%29.80 "HgN/A
7:25 pm54 °FCool.7 mph77%29.77 "HgN/A
6:55 pm57 °FPassing clouds.8 mph67%29.77 "HgN/A
6:25 pm59 °FPartly sunny.9 mph63%29.80 "HgN/A
5:55 pm59 °FCool.12 mph63%29.77 "HgN/A
5:25 pm61 °FScattered clouds.12 mph63%29.77 "HgN/A
4:55 pm63 °FBroken clouds.13 mph59%29.77 "HgN/A
4:25 pm63 °FPassing clouds.15 mph64%29.77 "HgN/A
3:55 pm63 °FPassing clouds.20 mph64%29.77 "HgN/A
3:25 pm63 °FMild.18 mph64%29.77 "HgN/A
2:55 pm63 °FMild.16 mph68%29.77 "HgN/A
2:25 pm63 °FBroken clouds.16 mph73%29.77 "HgN/A
Weather by CustomWeather, © 2017

See weather overview